San Carlos, CA

9:49 AM PDT on March 28, 2017 (GMT -0700)
San Carlos

Weather History for KSQL - April, 2014

Change the Weather History Date:

Wednesday, April 9, 2014

  Actual Average Record
Temperature  
Mean Temperature 60 °F -  
Max Temperature 68 °F 70 °F 93 °F (1989)
Min Temperature 51 °F 43 °F 35 °F (1975)
Degree Days  
Heating Degree Days 6    
Growing Degree Days 10 (Base 50)    
Moisture  
Dew Point 50 °F    
Average Humidity 77    
Maximum Humidity 88    
Minimum Humidity 52    
Precipitation  
Precipitation 0.00 in - - ()
Sea Level Pressure  
Sea Level Pressure 30.06 in    
Wind  
Wind Speed 4 mph (NNW)    
Max Wind Speed 10 mph    
Max Gust Speed -    
Visibility 10 miles    
Events      
Averages and records for this station are not official NWS values.
T = Trace of Precipitation, MM = Missing Value Source: NWS Daily Summary

Daily Weather History Graph

Daily Weather History Graph

Search for Another Location

Airport or City:

Trip Planner

Search our weather history database for the weather conditions in past years. The results will help you decide how hot, cold, wet, or windy it might be!

Date:

Astronomy

Apr. 09, 2014 Rise Set
Actual Time 6:42 AM PDT 7:39 PM PDT
Civil Twilight 6:15 AM PDT 8:05 PM PDT
Nautical Twilight 5:44 AM PDT 8:37 PM PDT
Astronomical Twilight 5:11 AM PDT 9:10 PM PDT
Moon 2:38 PM PDT (4/9) 3:28 AM PDT (4/9)
Length of Visible Light 13h 49m
Length of Day
12h 56m
Waxing Gibbous, 72% of the Moon is Illuminated
Apr 9
Waxing Gibbous
Apr 15
Full
Apr 22
Last Quarter
Apr 28
New
May 6
First Quarter

Hourly Weather History & Observations

Time (PDT) Temp. Dew Point Humidity Pressure Visibility Wind Dir Wind Speed Gust Speed Precip Events Conditions
12:15 AM 59.0 °F 55.4 °F 88% 30.07 in 10.0 mi Calm Calm - N/A   Clear
12:35 AM 59.0 °F 53.6 °F 82% 30.07 in 10.0 mi Calm Calm - N/A   Clear
12:55 AM 59.0 °F 51.8 °F 77% 30.07 in 10.0 mi NW 4.6 mph - N/A   Clear
1:15 AM 59.0 °F 51.8 °F 77% 30.07 in 10.0 mi NW 4.6 mph - N/A   Clear
1:35 AM 57.2 °F 51.8 °F 82% 30.07 in 10.0 mi NW 6.9 mph - N/A   Clear
1:55 AM 57.2 °F 50.0 °F 77% 30.07 in 10.0 mi NW 5.8 mph - N/A   Clear
2:15 AM 57.2 °F 50.0 °F 77% 30.08 in 10.0 mi NNW 4.6 mph - N/A   Clear
2:35 AM 55.4 °F 48.2 °F 77% 30.07 in 10.0 mi NW 4.6 mph - N/A   Clear
2:55 AM 55.4 °F 48.2 °F 77% 30.07 in 10.0 mi NW 5.8 mph - N/A   Clear
3:15 AM 55.4 °F 48.2 °F 77% 30.07 in 10.0 mi NNW 3.5 mph - N/A   Clear
3:35 AM 53.6 °F 48.2 °F 82% 30.07 in 10.0 mi NW 3.5 mph - N/A   Clear
3:55 AM 53.6 °F 48.2 °F 82% 30.07 in 10.0 mi NW 5.8 mph - N/A   Clear
4:15 AM 53.6 °F 48.2 °F 82% 30.07 in 10.0 mi NW 4.6 mph - N/A   Clear
4:35 AM 53.6 °F 48.2 °F 82% 30.07 in 10.0 mi NNW 4.6 mph - N/A   Clear
4:55 AM 53.6 °F 48.2 °F 82% 30.07 in 10.0 mi NNW 3.5 mph - N/A   Mostly Cloudy
5:15 AM 51.8 °F 48.2 °F 88% 30.07 in 10.0 mi NW 3.5 mph - N/A   Mostly Cloudy
5:35 AM 53.6 °F 48.2 °F 82% 30.07 in 10.0 mi Calm Calm - N/A   Mostly Cloudy
5:55 AM 53.6 °F 48.2 °F 82% 30.07 in 10.0 mi Calm Calm - N/A   Overcast
6:15 AM 53.6 °F 48.2 °F 82% 30.08 in 10.0 mi Calm Calm - N/A   Overcast
6:35 AM 53.6 °F 48.2 °F 82% 30.08 in 10.0 mi NW 3.5 mph - N/A   Overcast
6:53 AM 51.8 °F 48.2 °F 88% 30.09 in 8.0 mi Calm Calm - N/A   Mostly Cloudy
6:55 AM 51.8 °F 48.2 °F 88% 30.09 in 10.0 mi Calm Calm - N/A   Mostly Cloudy
7:20 AM 53.6 °F 48.2 °F 82% 30.10 in 8.0 mi Calm Calm - N/A   Mostly Cloudy
7:47 AM 53.6 °F 48.2 °F 82% 30.10 in 8.0 mi Calm Calm - N/A   Mostly Cloudy
8:47 AM 55.4 °F 50.0 °F 82% 30.10 in 8.0 mi ESE 3.5 mph - N/A   Overcast
9:47 AM 57.2 °F 51.8 °F 82% 30.11 in 7.0 mi ESE 4.6 mph - N/A   Overcast
11:47 AM 62.6 °F 53.6 °F 72% 30.09 in 10.0 mi NNE 9.2 mph - N/A   Scattered Clouds
12:50 PM 62.6 °F 55.4 °F 77% 30.07 in 10.0 mi NNE 5.8 mph - N/A   Scattered Clouds
1:47 PM 66.2 °F 53.6 °F 64% 30.05 in 10.0 mi NNW 9.2 mph - N/A   Scattered Clouds
2:47 PM 66.2 °F 51.8 °F 60% 30.04 in 10.0 mi NNW 10.4 mph - N/A   Scattered Clouds
3:47 PM 68.0 °F 50.0 °F 52% 30.02 in 10.0 mi North 8.1 mph - N/A   Scattered Clouds
4:50 PM 68.0 °F 51.8 °F 56% 30.01 in 10.0 mi North 8.1 mph - N/A   Scattered Clouds
5:58 PM 64.4 °F 48.2 °F 56% 30.00 in 10.0 mi NW 9.2 mph - N/A   Scattered Clouds
6:53 PM 62.6 °F 51.8 °F 68% 30.00 in 10.0 mi North 8.1 mph - N/A   Scattered Clouds
7:47 PM 59.0 °F 50.0 °F 72% 30.00 in 10.0 mi North 4.6 mph - N/A   Scattered Clouds
8:47 PM 57.2 °F 50.0 °F 77% 30.02 in 10.0 mi NNW 6.9 mph - N/A   Scattered Clouds
9:15 PM 55.4 °F 48.2 °F 77% 30.03 in 10.0 mi NNW 5.8 mph - N/A   Clear
9:35 PM 55.4 °F 48.2 °F 77% 30.03 in 10.0 mi North 3.5 mph - N/A   Clear
9:55 PM 55.4 °F 48.2 °F 77% 30.04 in 10.0 mi North 3.5 mph - N/A   Clear
10:15 PM 55.4 °F 48.2 °F 77% 30.04 in 10.0 mi NW 4.6 mph - N/A   Clear
10:35 PM 55.4 °F 46.4 °F 72% 30.05 in 10.0 mi NW 5.8 mph - N/A   Clear
10:55 PM 53.6 °F 48.2 °F 82% 30.05 in 10.0 mi NNW 3.5 mph - N/A   Clear
11:15 PM 53.6 °F 48.2 °F 82% 30.05 in 10.0 mi NW 3.5 mph - N/A   Clear
11:35 PM 53.6 °F 46.4 °F 77% 30.05 in 10.0 mi Calm Calm - N/A   Clear
11:55 PM 51.8 °F 46.4 °F 82% 30.05 in 10.0 mi Calm Calm - N/A   Clear